• In Deutschland
  • Länderverzeichnis
  • Für 7 Tage
  • Wassertemperatur
  • Satellitenkarten
  • Wetterkarte
  • Widgets
  • user-avatar
    Anmelden

    Stündliche Wetter Villavicencio

    Heute, 25 September, Montag

    Zeit Temperatur Niederschläge Wind Luftdruck Luftfeuchtigkeit
    00:00 +25°C° 2,3 mm 1 m/S 718 mmHg 95%
    01:00 +23°C° 2,3 mm 0 m/S 718 mmHg 95%
    02:00 +22°C° 1,8 mm 0 m/S 718 mmHg 95%
    03:00 +22°C° 1,8 mm 0 m/S 718 mmHg 95%
    04:00 +22°C° 1,8 mm 0 m/S 718 mmHg 95%
    05:00 +22°C° 0,5 mm 0 m/S 718 mmHg 93%
    06:00 +23°C° 0,5 mm 0 m/S 718 mmHg 92%
    07:00 +23°C° 0,5 mm 0 m/S 718 mmHg 91%
    08:00 +26°C° 0,2 mm 1 m/S 719 mmHg 85%
    09:00 +28°C° 0,2 mm 1 m/S 719 mmHg 78%
    10:00 +29°C° 0,2 mm 2 m/S 719 mmHg 72%
    11:00 +30°C° 0,2 mm 2 m/S 719 mmHg 68%
    12:00 +31°C° 0,2 mm 2 m/S 718 mmHg 64%
    13:00 +32°C° 0,2 mm 2 m/S 717 mmHg 60%
    14:00 +31°C° 0,1 mm 2 m/S 716 mmHg 60%
    15:00 +31°C° 0,1 mm 1 m/S 716 mmHg 61%
    16:00 +31°C° 0,1 mm 1 m/S 715 mmHg 61%
    17:00 +29°C° 0,1 mm 1 m/S 715 mmHg 67%
    18:00 +28°C° 0,1 mm 1 m/S 716 mmHg 73%
    19:00 +26°C° 0,1 mm 1 m/S 716 mmHg 79%
    20:00 +26°C° 0,3 mm 1 m/S 717 mmHg 79%
    21:00 +25°C° 0,3 mm 1 m/S 717 mmHg 80%
    22:00 +23°C° 0,3 mm 0 m/S 718 mmHg 80%
    23:00 +25°C° 0,3 mm 1 m/S 717 mmHg 80%

    Morgen, 26 September, Dienstag

    Zeit Temperatur Niederschläge Wind Luftdruck Luftfeuchtigkeit
    00:00 +25°C° 0,3 mm 1 m/S 717 mmHg 80%
    01:00 +24°C° 0,3 mm 1 m/S 717 mmHg 80%
    02:00 +24°C° 0 mm 1 m/S 716 mmHg 79%
    03:00 +24°C° 0 mm 1 m/S 716 mmHg 79%
    04:00 +23°C° 0 mm 1 m/S 716 mmHg 79%
    05:00 +24°C° 0 mm 1 m/S 717 mmHg 77%
    06:00 +25°C° 0 mm 1 m/S 717 mmHg 75%
    07:00 +24°C° 0 mm 0 m/S 718 mmHg 73%
    08:00 +28°C° 0 mm 1 m/S 718 mmHg 67%
    09:00 +29°C° 0 mm 1 m/S 718 mmHg 60%
    10:00 +31°C° 0 mm 2 m/S 719 mmHg 54%
    11:00 +32°C° 0 mm 2 m/S 718 mmHg 52%
    12:00 +34°C° 0 mm 2 m/S 717 mmHg 51%
    13:00 +34°C° 0 mm 2 m/S 716 mmHg 49%
    14:00 +34°C° 0,1 mm 2 m/S 715 mmHg 53%
    15:00 +32°C° 0,1 mm 2 m/S 715 mmHg 57%
    16:00 +32°C° 0,1 mm 2 m/S 714 mmHg 60%
    17:00 +30°C° 0,1 mm 1 m/S 715 mmHg 68%
    18:00 +28°C° 0,1 mm 1 m/S 715 mmHg 75%
    19:00 +26°C° 0,1 mm 1 m/S 716 mmHg 83%
    20:00 +25°C° 0,3 mm 1 m/S 716 mmHg 81%
    21:00 +25°C° 0,3 mm 1 m/S 717 mmHg 80%
    22:00 +25°C° 0,3 mm 1 m/S 717 mmHg 79%
    23:00 +24°C° 0,1 mm 1 m/S 717 mmHg 76%

    übermorgen, 27 September, Mittwoch

    Zeit Temperatur Niederschläge Wind Luftdruck Luftfeuchtigkeit
    00:00 +24°C° 0,1 mm 1 m/S 717 mmHg 73%
    01:00 +24°C° 0,1 mm 1 m/S 716 mmHg 71%
    02:00 +24°C° 0,2 mm 1 m/S 716 mmHg 70%
    03:00 +24°C° 0,2 mm 1 m/S 716 mmHg 69%
    04:00 +24°C° 0,2 mm 1 m/S 715 mmHg 68%
    05:00 +22°C° 0,1 mm 0 m/S 716 mmHg 68%
    06:00 +23°C° 0,1 mm 0 m/S 717 mmHg 68%
    07:00 +24°C° 0,1 mm 0 m/S 717 mmHg 67%
    08:00 +28°C° 0,1 mm 1 m/S 718 mmHg 64%
    09:00 +29°C° 0,1 mm 1 m/S 718 mmHg 61%
    10:00 +31°C° 0,1 mm 1 m/S 718 mmHg 58%
    11:00 +31°C° 0,1 mm 2 m/S 717 mmHg 58%
    12:00 +32°C° 0,1 mm 2 m/S 716 mmHg 58%
    13:00 +32°C° 0,1 mm 2 m/S 715 mmHg 58%
    14:00 +32°C° 0,1 mm 2 m/S 715 mmHg 62%
    15:00 +31°C° 0,1 mm 2 m/S 714 mmHg 66%
    16:00 +31°C° 0,1 mm 2 m/S 714 mmHg 71%
    17:00 +29°C° 0,2 mm 1 m/S 714 mmHg 77%
    18:00 +28°C° 0,2 mm 1 m/S 715 mmHg 83%
    19:00 +24°C° 0,2 mm 0 m/S 716 mmHg 89%
    20:00 +26°C° 0,1 mm 1 m/S 716 mmHg 89%
    21:00 +25°C° 0,1 mm 1 m/S 717 mmHg 89%
    22:00 +25°C° 0,1 mm 1 m/S 717 mmHg 89%
    23:00 +25°C° 0,1 mm 1 m/S 717 mmHg 88%

    28 September, Donnerstag

    Zeit Temperatur Niederschläge Wind Luftdruck Luftfeuchtigkeit
    00:00 +24°C° 0,1 mm 1 m/S 716 mmHg 88%
    01:00 +24°C° 0,1 mm 1 m/S 716 mmHg 87%
    02:00 +24°C° 0,1 mm 1 m/S 716 mmHg 86%
    03:00 +24°C° 0,1 mm 1 m/S 716 mmHg 86%
    04:00 +23°C° 0,1 mm 1 m/S 716 mmHg 85%
    05:00 +24°C° 0 mm 1 m/S 716 mmHg 82%
    06:00 +25°C° 0 mm 1 m/S 717 mmHg 79%
    07:00 +24°C° 0 mm 0 m/S 718 mmHg 76%
    08:00 +28°C° 0 mm 1 m/S 718 mmHg 69%
    09:00 +29°C° 0 mm 1 m/S 718 mmHg 63%
    10:00 +31°C° 0 mm 2 m/S 718 mmHg 57%
    11:00 +32°C° 0,1 mm 2 m/S 717 mmHg 57%
    12:00 +32°C° 0,1 mm 2 m/S 716 mmHg 57%
    13:00 +34°C° 0,1 mm 2 m/S 715 mmHg 57%
    14:00 +32°C° 0,3 mm 2 m/S 715 mmHg 62%
    15:00 +31°C° 0,3 mm 2 m/S 714 mmHg 68%
    16:00 +30°C° 0,3 mm 2 m/S 713 mmHg 73%
    17:00 +29°C° 0,7 mm 1 m/S 714 mmHg 79%
    18:00 +28°C° 0,7 mm 1 m/S 715 mmHg 84%
    19:00 +27°C° 0,7 mm 1 m/S 716 mmHg 89%
    20:00 +26°C° 0,6 mm 1 m/S 716 mmHg 89%
    21:00 +26°C° 0,6 mm 1 m/S 716 mmHg 89%
    22:00 +25°C° 0,6 mm 1 m/S 717 mmHg 89%
    23:00 +25°C° 0,2 mm 1 m/S 717 mmHg 88%

    29 September, Freitag

    Zeit Temperatur Niederschläge Wind Luftdruck Luftfeuchtigkeit
    00:00 +25°C° 0,2 mm 1 m/S 716 mmHg 86%
    01:00 +25°C° 0,2 mm 1 m/S 716 mmHg 85%
    02:00 +25°C° 0,1 mm 1 m/S 716 mmHg 84%
    03:00 +24°C° 0,1 mm 1 m/S 716 mmHg 83%
    04:00 +24°C° 0,1 mm 1 m/S 716 mmHg 81%
    05:00 +25°C° 0,1 mm 1 m/S 717 mmHg 80%
    06:00 +24°C° 0,1 mm 0 m/S 717 mmHg 78%
    07:00 +24°C° 0,1 mm 0 m/S 718 mmHg 76%
    08:00 +28°C° 0,2 mm 1 m/S 718 mmHg 72%
    09:00 +29°C° 0,2 mm 1 m/S 718 mmHg 69%
    10:00 +30°C° 0,2 mm 1 m/S 718 mmHg 65%
    11:00 +30°C° 0,3 mm 1 m/S 717 mmHg 65%
    12:00 +30°C° 0,3 mm 1 m/S 716 mmHg 66%
    13:00 +31°C° 0,3 mm 1 m/S 716 mmHg 66%
    14:00 +31°C° 0,3 mm 1 m/S 715 mmHg 68%
    15:00 +31°C° 0,3 mm 1 m/S 715 mmHg 69%
    16:00 +30°C° 0,3 mm 1 m/S 714 mmHg 71%
    17:00 +29°C° 0,5 mm 1 m/S 715 mmHg 77%
    18:00 +28°C° 0,5 mm 1 m/S 715 mmHg 83%
    19:00 +26°C° 0,5 mm 1 m/S 716 mmHg 88%
    20:00 +26°C° 0,6 mm 1 m/S 716 mmHg 89%
    21:00 +25°C° 0,6 mm 1 m/S 717 mmHg 89%
    22:00 +25°C° 0,6 mm 1 m/S 717 mmHg 89%
    23:00 +25°C° 0,2 mm 1 m/S 717 mmHg 88%

    30 September, Samstag

    Zeit Temperatur Niederschläge Wind Luftdruck Luftfeuchtigkeit
    00:00 +25°C° 0,2 mm 1 m/S 716 mmHg 87%
    01:00 +24°C° 0,2 mm 1 m/S 716 mmHg 86%
    02:00 +24°C° 0,1 mm 1 m/S 716 mmHg 85%
    03:00 +24°C° 0,1 mm 1 m/S 716 mmHg 84%
    04:00 +24°C° 0,1 mm 1 m/S 716 mmHg 83%
    05:00 +25°C° 0,3 mm 1 m/S 717 mmHg 82%
    06:00 +23°C° 0,3 mm 0 m/S 717 mmHg 80%
    07:00 +23°C° 0,3 mm 0 m/S 718 mmHg 79%
    08:00 +26°C° 0,5 mm 1 m/S 718 mmHg 79%
    09:00 +26°C° 0,5 mm 1 m/S 718 mmHg 78%
    10:00 +27°C° 0,5 mm 1 m/S 718 mmHg 77%
    11:00 +27°C° 0,6 mm 1 m/S 717 mmHg 76%
    12:00 +28°C° 0,6 mm 1 m/S 716 mmHg 75%
    13:00 +28°C° 0,6 mm 1 m/S 716 mmHg 74%
    14:00 +28°C° 0,2 mm 1 m/S 715 mmHg 73%
    15:00 +29°C° 0,2 mm 1 m/S 715 mmHg 72%
    16:00 +29°C° 0,2 mm 1 m/S 715 mmHg 72%
    17:00 +28°C° 0,2 mm 1 m/S 715 mmHg 76%
    18:00 +27°C° 0,2 mm 1 m/S 716 mmHg 80%
    19:00 +24°C° 0,2 mm 0 m/S 716 mmHg 84%
    20:00 +23°C° 0,7 mm 0 m/S 717 mmHg 85%
    21:00 +23°C° 0,7 mm 0 m/S 717 mmHg 86%
    22:00 +25°C° 0,7 mm 1 m/S 717 mmHg 87%
    23:00 +24°C° 1,2 mm 1 m/S 717 mmHg 89%
    Mehr zeigen